[[{"header":{"parameterUnit":"m.s-1","parameterCategory":1,"la1":30.2991,"la2":30.254,"lo1":-89.0895,"lo2":-89.0444,"dy":0.0017,"dx":0.0017,"nx":28,"ny":28,"refTime":"2025-11-04T09:00:00:Z","depth":0,"parameterNumber":2,"parameterNumberName":"U-component_of_WINDS"},"data":[0,0,0,0,0,0,0,0,0,0,0,0,0,0,0,0,0,0,0,0,0,0,0,0,0,0,0,0,0,0,0,0,0,0,0,0,0,0,0,0,0,0,0,0,0,0,0,0,0,0,0,0,0,0,0,0,0,0,-2.7118,-2.7119,0,-2.7177,-2.7177,-2.7178,-2.7102,-2.7099,-2.7096,-2.7094,-2.7156,-2.716,-2.7164,0,0,0,0,0,0,0,0,0,0,0,0,0,-2.6944,-2.6948,-2.7118,-2.7119,-2.712,-2.7176,-2.7177,-2.7178,-2.7102,-2.7099,-2.7096,-2.7093,-2.7155,-2.716,-2.7165,0,0,0,0,0,0,0,0,0,0,0,0,0,-2.7013,-2.6949,-2.7118,-2.7089,-2.7087,-2.7176,-2.7177,-2.7178,-2.7103,-2.7099,-2.7095,-2.7091,-2.7153,-2.7159,-2.7165,-2.7287,0,0,-2.7185,-2.7188,0,0,0,0,0,0,0,0,-2.7009,-2.702,-2.7092,-2.7091,-2.7089,-2.7128,-2.7139,-2.7215,-2.7104,-2.7097,-2.7094,-2.7089,-2.715,-2.7157,-2.7177,-2.729,-2.7293,-2.7185,-2.7189,-2.7192,-2.7194,0,0,0,0,0,0,0,-2.7005,-2.7017,-2.7141,-2.7094,-2.7092,-2.7074,-2.7079,-2.7153,-2.7146,-2.7097,-2.7092,-2.71,-2.7148,-2.7171,-2.7177,-2.7294,-2.7185,-2.7191,-2.7195,-2.7197,-2.7512,-2.7516,0,0,0,0,0,0,-2.7003,-2.7013,-2.714,-2.7143,-2.7038,-2.708,-2.7086,-2.712,-2.7145,-2.7145,-2.7103,-2.7096,-2.7162,-2.717,-2.7179,-2.7325,-2.7192,-2.7198,-2.7202,-2.7508,-2.7513,-2.7518,0,0,0,0,0,0,-2.6999,-2.7015,-2.7137,-2.7077,-2.7091,-2.7087,-2.7126,-2.7123,-2.7145,-2.715,-2.7148,-2.7127,-2.7159,-2.717,-2.7261,-2.7326,-2.7201,-2.7207,-2.7502,-2.7509,-2.7516,-2.7618,0,0,0,0,0,0,-2.6995,-2.7014,-2.706,-2.7078,-2.7094,-2.7218,-2.713,-2.7127,-2.7156,-2.7147,-2.7172,-2.7172,-2.7157,-2.7252,-2.7268,-2.7333,-2.7211,-2.7496,-2.7505,-2.7513,-2.7609,-2.7627,-2.7643,0,0,0,0,0,-2.6989,-2.7087,-2.7063,-2.7078,-2.7151,-2.7222,-2.7231,-2.7211,-2.7161,-2.7208,-2.7211,-2.7171,-2.7316,-2.7262,-2.7279,-2.7347,-2.7492,-2.7503,-2.7513,-2.7601,-2.7624,-2.7643,0,0,0,0,0,0,-2.7077,-2.7088,-2.7062,-2.7168,-2.7195,-2.7209,-2.7267,-2.7235,-2.7277,-2.7267,-2.7241,-2.7247,-2.7344,-2.7354,-2.7294,-2.7467,-2.7396,-2.741,-2.7457,-2.7479,-2.7496,-2.7493,-2.7217,0,0,0,0,0,-2.7108,-2.7164,-2.7171,-2.7264,-2.7279,-2.7271,-2.73,-2.7283,-2.7309,-2.732,-2.7329,-2.7357,-2.7409,-2.7444,-2.7492,-2.7609,-2.7614,-2.7664,-2.7681,-2.7695,-2.7709,-2.7773,-2.7796,-2.7552,-2.7552,-2.7552,0,0,-2.7175,-2.7188,-2.7224,-2.7282,-2.73,-2.7359,-2.7281,-2.7346,-2.739,-2.733,-2.7417,-2.7425,-2.7454,-2.7559,-2.7605,-2.757,-2.7777,-2.7708,-2.772,-2.7725,-2.7786,-2.7809,-2.7829,-2.7559,-2.7557,-2.7556,0,0,-2.7326,-2.7341,-2.7421,-2.744,-2.7469,-2.7463,-2.7482,-2.7501,-2.7504,-2.759,-2.7547,-2.7599,-2.7688,-2.7712,-2.7735,-2.7895,-2.7861,-2.7912,-2.8003,-2.8066,-2.8085,-2.8102,-2.8161,-2.8183,-2.7924,-2.7925,-2.7925,0,-2.7405,-2.7492,-2.7466,-2.7535,-2.7562,-2.751,-2.7592,-2.7612,-2.7655,-2.7676,-2.7635,-2.7747,-2.7763,-2.7873,-2.7912,-2.7932,-2.7955,-2.791,-2.8084,-2.8101,-2.8116,-2.8173,-2.8195,-2.7931,-2.793,-2.7929,-2.7929,0,-2.7589,-2.7649,-2.7711,-2.7753,-2.7787,-2.7862,-2.7849,-2.7886,-2.7865,-2.7864,-2.7953,-2.797,-2.8022,-2.8046,-2.8026,-2.8154,-2.8131,-2.8088,-2.8017,-2.8146,-2.8199,-2.822,-2.794,-2.7937,-2.7935,-2.7934,0,0,-2.7799,-2.7826,-2.7849,-2.7868,-2.7895,-2.7942,-2.8015,-2.8064,-2.8098,-2.8129,-2.8191,-2.8268,-2.8228,-2.8255,-2.8237,-2.8292,-2.842,-2.8241,-2.8242,-2.8276,-2.8564,-2.8599,-2.8624,-2.8396,-2.84,-2.8403,-2.8563,0,-2.7952,-2.8078,-2.8057,-2.8179,-2.8236,-2.8186,-2.825,-2.8274,-2.8275,-2.8324,-2.8324,-2.838,-2.8322,-2.8338,-2.839,-2.8394,-2.8478,-2.8381,-2.8456,-2.8459,-2.8452,-2.8651,-2.8688,-2.8838,-2.8583,-2.8586,-2.8589,0,-2.8148,-2.8186,-2.8314,-2.8333,-2.8356,-2.8414,-2.8458,-2.8504,-2.8531,-2.8528,-2.8558,-2.853,-2.8604,-2.853,-2.8632,-2.8567,-2.8596,-2.8602,-2.8607,-2.8616,-2.8533,-2.8667,-2.8884,-2.8908,-2.862,-2.8618,-2.8616,0,-2.8291,-2.8374,-2.8462,-2.848,-2.8504,-2.8546,-2.8558,-2.858,-2.8611,-2.865,-2.867,-2.8717,-2.8743,-2.8781,-2.8767,-2.8713,-2.8873,-2.8797,-2.8874,-2.8875,-2.8912,-2.891,-2.914,-2.8926,-2.8926,-2.8926,-2.8925,0,-2.8466,-2.8547,-2.8527,-2.8582,-2.8671,-2.8646,-2.8736,-2.8742,-2.8762,-2.8818,-2.8777,-2.883,-2.8807,-2.8859,-2.8848,-2.8936,-2.8947,-2.8948,-2.8945,-2.8953,-2.8954,-2.8974,-2.8964,-2.8932,-2.893,-2.8929,-2.8928,0,-2.8643,-2.8632,-2.8725,-2.874,-2.8745,-2.8811,-2.8824,-2.8875,-2.8872,-2.8943,-2.8958,-2.8954,-2.9013,-2.9002,-2.9067,-2.906,-2.917,-2.9153,-2.9162,-2.9159,-2.9237,-2.9231,-2.9489,-2.9523,-2.9286,-2.9288,-2.929,0,-2.8756,-2.8817,-2.8839,-2.8872,-2.8888,-2.8943,-2.8974,-2.8952,-2.8987,-2.9022,-2.907,-2.9125,-2.9168,-2.9265,-2.9268,-2.9318,-2.9303,-2.939,-2.931,-2.9317,-2.9307,-2.9305,-2.9312,-2.9407,-2.9409,-2.9412,-2.9413,0,-2.896,-2.8952,-2.8998,-2.9044,-2.9083,-2.9118,-2.9149,-2.9179,-2.9159,-2.9201,-2.926,-2.9294,-2.936,-2.9416,-2.9463,-2.9476,-2.9443,-2.9438,-2.9459,-2.947,-2.9473,-2.9475,-2.9208,-2.9433,-2.9431,-2.9429,-2.9428,-2.9428,-2.911,-2.9163,-2.9186,-2.924,-2.9261,-2.9291,-2.934,-2.9343,-2.9392,-2.9444,-2.9427,-2.9496,-2.9521,-2.958,-2.9599,-2.9653,-2.962,-2.965,-2.9658,-2.9667,-2.9677,-2.9462,-2.9661,-2.966,-2.9659,-2.9659,-2.9659,0,-2.9313,-2.9326,-2.9375,-2.942,-2.9463,-2.9426,-2.9458,-2.9497,-2.9558,-2.9584,-2.9627,-2.9696,-2.975,-2.9757,-2.9809,-2.9851,-2.9837,-2.9865,-2.9863,-2.9867,-2.9702,-2.968,-2.9876,-2.9876,-2.9876,-2.9876,-2.9876,-2.9875,-2.9425,-2.9512,-2.9507,-2.9605,-2.9616,-2.9683,-2.9705,-2.9733,-2.9754,-2.9833,-2.9877,-2.9881,-2.99,-2.9953,-3.0001,-3.0002,-3.0024,-3.0059,-3.0054,-2.99,-2.9879,-2.9858,-2.9837,-3.0063,-3.0063,-3.0215,-3.0217,-3.0218]},{"header":{"parameterUnit":"m.s-1","parameterCategory":1,"la1":30.2991,"la2":30.254,"lo1":-89.0895,"lo2":-89.0444,"dy":0.0017,"dx":0.0017,"nx":28,"ny":28,"refTime":"2025-11-04T09:00:00:Z","depth":0,"parameterNumber":3,"parameterNumberName":"V-component_of_WINDS"},"data":[0,0,0,0,0,0,0,0,0,0,0,0,0,0,0,0,0,0,0,0,0,0,0,0,0,0,0,0,0,0,0,0,0,0,0,0,0,0,0,0,0,0,0,0,0,0,0,0,0,0,0,0,0,0,0,0,0,0,-3.137,-3.137,0,-3.1368,-3.1368,-3.1368,-3.1309,-3.1308,-3.1306,-3.1305,-3.1303,-3.1304,-3.1306,0,0,0,0,0,0,0,0,0,0,0,0,0,-3.1321,-3.1323,-3.137,-3.137,-3.137,-3.1368,-3.1368,-3.1368,-3.131,-3.1308,-3.1306,-3.1304,-3.1303,-3.1304,-3.1306,0,0,0,0,0,0,0,0,0,0,0,0,0,-3.1333,-3.1323,-3.137,-3.134,-3.1338,-3.1368,-3.1368,-3.1368,-3.131,-3.1308,-3.1305,-3.1303,-3.1302,-3.1304,-3.1306,-3.1364,0,0,-3.1312,-3.1313,0,0,0,0,0,0,0,0,-3.1333,-3.1335,-3.1345,-3.1342,-3.1339,-3.1336,-3.135,-3.1367,-3.131,-3.132,-3.1305,-3.1302,-3.1316,-3.1317,-3.1321,-3.1364,-3.1364,-3.1312,-3.1314,-3.1315,-3.1315,0,0,0,0,0,0,0,-3.1332,-3.1335,-3.1369,-3.1345,-3.1342,-3.1327,-3.1326,-3.1353,-3.1331,-3.1319,-3.1315,-3.1316,-3.1314,-3.132,-3.1321,-3.1364,-3.1312,-3.1314,-3.1315,-3.1316,-3.1454,-3.1456,0,0,0,0,0,0,-3.1335,-3.1335,-3.1369,-3.1369,-3.133,-3.133,-3.1329,-3.134,-3.1331,-3.1327,-3.1318,-3.1313,-3.1317,-3.1319,-3.1321,-3.1388,-3.1315,-3.1316,-3.1318,-3.1451,-3.1454,-3.1457,0,0,0,0,0,0,-3.1335,-3.1339,-3.1369,-3.1351,-3.1353,-3.1333,-3.1346,-3.1341,-3.1346,-3.1329,-3.1325,-3.1327,-3.1315,-3.1318,-3.1354,-3.1387,-3.1317,-3.1319,-3.1448,-3.1452,-3.1456,-3.1523,0,0,0,0,0,0,-3.1333,-3.1339,-3.1361,-3.1352,-3.1355,-3.1403,-3.1348,-3.1343,-3.135,-3.1344,-3.1337,-3.1334,-3.1314,-3.1351,-3.1356,-3.1388,-3.1321,-3.1445,-3.145,-3.1454,-3.1518,-3.1528,-3.1537,0,0,0,0,0,-3.1332,-3.138,-3.1363,-3.1367,-3.1382,-3.1405,-3.1406,-3.1382,-3.1353,-3.1375,-3.1364,-3.1334,-3.1382,-3.1355,-3.136,-3.1394,-3.1443,-3.1449,-3.1454,-3.1513,-3.1526,-3.1537,0,0,0,0,0,0,-3.1395,-3.1379,-3.1359,-3.1406,-3.1407,-3.1395,-3.1422,-3.1397,-3.1407,-3.1401,-3.137,-3.1369,-3.141,-3.1405,-3.1375,-3.1449,-3.1408,-3.1414,-3.1451,-3.1463,-3.1473,-3.1473,-3.1323,0,0,0,0,0,-3.1414,-3.1434,-3.1419,-3.1462,-3.1463,-3.1443,-3.1452,-3.1433,-3.1433,-3.1433,-3.1425,-3.1426,-3.1441,-3.1452,-3.1465,-3.1517,-3.1514,-3.1542,-3.1552,-3.156,-3.1567,-3.1593,-3.1605,-3.1475,-3.1475,-3.1475,0,0,-3.1454,-3.1448,-3.1462,-3.1474,-3.1473,-3.1494,-3.1443,-3.1468,-3.1483,-3.1437,-3.147,-3.1464,-3.1463,-3.1507,-3.1526,-3.1505,-3.1602,-3.1567,-3.1574,-3.1576,-3.16,-3.1612,-3.1623,-3.1478,-3.1478,-3.1477,0,0,-3.1538,-3.1536,-3.157,-3.157,-3.1569,-3.1554,-3.1563,-3.1554,-3.1548,-3.1581,-3.1547,-3.1564,-3.1591,-3.1592,-3.1596,-3.1679,-3.1652,-3.1684,-3.1737,-3.1763,-3.1773,-3.1782,-3.1811,-3.1822,-3.1691,-3.1691,-3.1691,0,-3.1588,-3.1618,-3.1592,-3.1618,-3.1624,-3.1583,-3.1618,-3.1619,-3.1622,-3.1627,-3.1603,-3.1636,-3.1632,-3.1675,-3.1696,-3.17,-3.1709,-3.1685,-3.1774,-3.1782,-3.179,-3.1818,-3.1829,-3.1695,-3.1694,-3.1694,-3.1693,0,-3.168,-3.1701,-3.173,-3.1734,-3.1743,-3.1773,-3.1751,-3.1763,-3.1744,-3.1732,-3.1765,-3.176,-3.1771,-3.178,-3.1761,-3.182,-3.1807,-3.1779,-3.1736,-3.1807,-3.1832,-3.1843,-3.17,-3.1699,-3.1698,-3.1697,0,0,-3.1804,-3.1792,-3.1802,-3.1803,-3.1798,-3.1814,-3.1843,-3.1854,-3.1865,-3.1868,-3.1891,-3.1915,-3.1888,-3.1893,-3.1874,-3.1897,-3.1962,-3.1865,-3.1865,-3.1883,-3.2027,-3.2048,-3.206,-3.1944,-3.1946,-3.1948,-3.2027,0,-3.1884,-3.1932,-3.1909,-3.196,-3.1979,-3.194,-3.1964,-3.1964,-3.1954,-3.1968,-3.1957,-3.1974,-3.1938,-3.194,-3.1961,-3.195,-3.1991,-3.1944,-3.1965,-3.1966,-3.1966,-3.2074,-3.2096,-3.2171,-3.2036,-3.2038,-3.2039,0,-3.1985,-3.1992,-3.2045,-3.2036,-3.2043,-3.2066,-3.2073,-3.2088,-3.2086,-3.2077,-3.2082,-3.2057,-3.2084,-3.2042,-3.2079,-3.2047,-3.2055,-3.205,-3.2053,-3.2054,-3.2007,-3.2077,-3.2194,-3.2205,-3.2055,-3.2054,-3.2052,0,-3.207,-3.2093,-3.2127,-3.2129,-3.2119,-3.2136,-3.2133,-3.2129,-3.2136,-3.2143,-3.2147,-3.2157,-3.2163,-3.2171,-3.2149,-3.212,-3.2188,-3.2145,-3.2181,-3.2182,-3.2197,-3.2197,-3.2317,-3.2203,-3.2203,-3.2202,-3.2202,0,-3.2162,-3.2196,-3.2164,-3.2186,-3.2222,-3.2194,-3.2231,-3.2224,-3.222,-3.2239,-3.2206,-3.2224,-3.2195,-3.221,-3.2193,-3.2226,-3.2229,-3.2222,-3.2217,-3.2225,-3.2226,-3.2229,-3.2223,-3.2205,-3.2205,-3.2204,-3.2204,0,-3.2263,-3.2243,-3.2278,-3.2266,-3.2263,-3.2291,-3.228,-3.2299,-3.2286,-3.231,-3.2314,-3.2294,-3.231,-3.2289,-3.2304,-3.2292,-3.2337,-3.2324,-3.2338,-3.2334,-3.2372,-3.2368,-3.2498,-3.2513,-3.239,-3.2391,-3.2392,0,-3.2323,-3.2348,-3.2338,-3.2348,-3.2347,-3.2363,-3.2371,-3.2344,-3.2353,-3.2353,-3.2372,-3.2385,-3.2394,-3.2422,-3.2409,-3.242,-3.2407,-3.2452,-3.2408,-3.2415,-3.2407,-3.2406,-3.2408,-3.2461,-3.2462,-3.2463,-3.2464,0,-3.2432,-3.2421,-3.2433,-3.2441,-3.2451,-3.2456,-3.2459,-3.2469,-3.2441,-3.2453,-3.2469,-3.2477,-3.2491,-3.2505,-3.2512,-3.2508,-3.2482,-3.2478,-3.2487,-3.2495,-3.2502,-3.2498,-3.2361,-3.2475,-3.2474,-3.2473,-3.2473,-3.2472,-3.2514,-3.2534,-3.253,-3.2544,-3.2543,-3.2547,-3.2563,-3.2552,-3.2565,-3.2575,-3.2558,-3.2578,-3.2576,-3.2582,-3.2582,-3.2597,-3.2578,-3.2591,-3.2594,-3.2598,-3.2603,-3.2499,-3.2598,-3.2598,-3.2598,-3.2597,-3.2597,0,-3.262,-3.2616,-3.2629,-3.2634,-3.2645,-3.2619,-3.262,-3.2632,-3.265,-3.2649,-3.2659,-3.2677,-3.269,-3.2677,-3.2688,-3.2703,-3.2691,-3.2706,-3.2705,-3.2704,-3.262,-3.2611,-3.2716,-3.2716,-3.2716,-3.2716,-3.2715,-3.2715,-3.2677,-3.2709,-3.2698,-3.2729,-3.2724,-3.2743,-3.2747,-3.2749,-3.2749,-3.277,-3.2781,-3.2772,-3.2767,-3.2777,-3.2787,-3.2783,-3.2789,-3.2808,-3.28,-3.2722,-3.271,-3.2699,-3.269,-3.281,-3.281,-3.2883,-3.2883,-3.2884]}]]